Location: Cheching
(60.0667°N, 164.2167°W)
Time: 00:54:56
(UTC+00:00)

DX 1 - Pass Details

Date: 29 January 2021
Orbit: 618 x 631 km, 98.5° (Epoch: 07 March)

Event Time Altitude Azimuth Distance (km) Brightness Sun altitude
Exits shadow 06:32:27 49° 208° (SSW) 805 ? -25.7°
Drops below altitude 10° 06:35:38 10° 203° (SSW) 1,986 ? -26.0°
Sets 06:37:48 0° 203° (SSW) 2,888 ? -26.3°
